Theta_e
309 310 312 312 314 314 315 316 316 317 318 319 321 322 324 326 330 330 330 331 332 334 336 334 331 330 330 332 338 338 336 334 329 333 333 332 330 331 333 333 334 334 332
306 309 311 313 313 313 315 316 316 317 318 320 322 323 324 325 325 325 326 329 330 331 334 334 334 334 332 333 334 335 338 334 333 330 332 329 328 329 330 330 331 333 332
306 306 307 307 307 309 310 312 313 315 317 319 321 322 322 323 324 324 325 326 326 327 329 332 335 337 334 333 336 336 335 336 332 331 331 328 327 327 327 328 328 328 327
306 306 306 306 307 308 310 311 312 314 314 316 318 319 320 321 323 324 325 325 324 326 329 331 332 333 335 337 339 341 339 334 331 329 327 326 325 326 326 325 325 326 326
305 305 306 308 308 308 308 309 310 310 311 312 312 313 316 318 318 320 321 322 322 323 325 328 330 330 326 328 336 339 340 334 330 326 324 324 323 324 324 324 325 324 325
304 304 306 306 306 307 307 307 307 307 308 308 309 310 310 310 304 304 309 315 318 322 322 324 326 323 325 318 317 318 328 335 329 326 324 323 322 324 323 323 323 322 321
303 304 305 306 306 306 307 306 305 305 306 306 307 309 310 311 304 303 305 313 315 319 321 321 322 325 323 331 323 315 313 312 317 329 324 322 322 325 324 322 322 323 323
301 302 304 305 305 306 306 306 305 305 305 305 307 308 309 310 303 301 303 313 317 318 319 321 323 325 327 328 333 334 327 324 325 327 328 327 328 327 329 328 326 324 324
300 300 302 303 305 305 305 305 305 304 304 305 307 308 308 309 302 301 303 312 314 317 322 325 326 327 315 305 326 330 325 323 310 307 308 306 303 305 317 326 323 323 319
299 300 301 302 304 305 305 306 305 305 305 306 306 307 306 308 301 300 303 312 315 320 322 323 308 315 307 303 323 326 323 323 320 318 317 313 311 310 306 330 326 323 322
300 301 301 301 302 304 305 306 305 305 306 304 305 306 307 308 309 300 298 310 317 318 318 320 323 304 302 299 302 329 325 321 316 323 322 322 320 321 322 326 328 328 324
300 300 300 301 301 302 302 305 305 304 303 303 303 304 306 308 301 302 300 298 307 315 316 319 320 302 301 296 302 302 302 311 322 321 319 319 321 319 322 325 327 328 330
299 299 299 300 301 303 302 303 302 302 303 302 302 302 304 307 309 298 298 296 297 305 313 311 300 300 297 301 301 298 302 320 320 319 318 319 323 324 325 325 326 327 328
298 298 299 299 300 301 303 304 302 302 302 303 303 303 305 306 308 312 311 311 302 305 307 310 307 305 303 307 307 306 321 322 322 321 319 321 322 323 322 324 324 325 325
296 297 297 299 299 300 302 303 303 305 304 303 304 305 305 305 307 305 307 312 316 311 311 313 312 314 315 316 316 319 319 320 320 320 319 320 322 321 321 322 322 322 321
295 295 298 299 300 302 302 303 297 299 297 297 298 304 308 301 299 297 296 297 297 296 312 313 315 317 317 318 318 318 318 316 321 322 322 322 321 321 321 321 322 322 320
295 297 300 300 301 302 302 303 301 299 294 294 294 294 294 300 296 295 295 293 293 295 316 316 318 319 320 320 320 319 318 320 321 322 322 322 322 322 320 321 321 321 321
297 297 300 301 302 303 303 304 305 304 303 305 297 298 294 294 294 292 293 294 307 299 315 319 320 321 319 319 319 319 319 320 321 321 322 323 323 322 320 318 318 320 317
299 300 302 303 304 303 305 305 305 305 305 305 305 297 297 293 292 291 293 307 311 310 316 319 320 318 318 319 320 321 321 321 320 321 322 323 322 320 318 318 314 303 308
301 297 299 302 303 304 304 305 305 304 304 303 304 306 305 299 301 303 302 307 314 315 318 318 318 318 319 320 321 321 319 317 320 321 322 322 318 318 318 316 315 319 317
301 301 299 302 304 305 305 306 306 306 305 305 306 307 295 305 306 306 306 310 317 319 318 318 319 319 321 320 320 320 321 321 322 322 321 321 321 318 319 320 319 318 316
302 304 303 303 305 305 306 309 309 308 308 309 309 304 290 307 310 309 316 318 320 320 319 319 320 321 321 321 321 321 321 321 322 321 320 320 320 318 319 317 316 315 316
303 304 305 304 305 303 308 311 312 313 312 311 310 307 303 314 316 318 318 320 319 318 319 321 320 320 322 322 323 323 323 322 321 322 320 319 318 317 316 314 313 311 310
305 306 306 307 306 308 311 312 313 305 312 313 314 315 315 315 315 315 317 317 318 319 320 321 321 320 319 320 321 322 323 322 322 321 319 316 311 308 308 305 301 300 295
317 316 316 315 313 314 314 314 314 314 313 311 311 308 308 310 308 309 312 313 313 314 314 315 319 315 315 315 318 314 296 295 309 300 309 308 305 304 301 299 296 293 292
311 312 312 313 313 313 312 311 309 309 309 307 305 304 303 303 304 305 306 307 307 306 307 310 309 307 308 309 308 292 290 291 297 293 304 301 298 296 294 292 292 292 292
Wind_Speed
4 5 7 8 7 7 6 5 5 5 5 6 5 5 4 4 4 5 4 4 6 7 7 10 12 7 8 8 7 6 7 6 6 1 5 4 3 4 2 3 3 4 3
4 4 7 4 5 6 6 7 7 7 6 6 6 6 6 6 6 5 4 5 6 7 7 8 9 5 10 9 7 10 10 7 7 9 3 5 5 3 3 4 2 1 2
7 7 6 7 6 7 8 7 6 6 6 5 5 4 4 3 2 3 4 5 5 5 7 7 9 7 9 7 8 8 8 6 8 6 4 1 1 3 3 2 2 3 2
7 8 9 8 9 9 7 6 8 7 6 5 4 4 3 2 2 3 4 6 6 6 6 6 8 9 9 10 7 9 6 7 6 5 4 3 2 2 2 3 4 3 3
4 4 8 9 8 7 8 8 6 7 6 6 6 4 3 2 3 4 5 7 8 8 7 7 8 9 12 12 8 11 8 8 6 6 6 4 4 3 6 3 4 2 2
6 5 4 5 6 9 9 9 8 7 6 6 6 6 5 3 5 7 7 8 11 10 10 7 7 10 12 13 14 17 14 9 9 4 6 5 5 3 3 4 3 3 2
6 6 6 5 6 6 7 8 9 9 7 7 7 6 5 4 8 10 12 7 8 10 8 7 8 7 9 11 12 13 10 12 5 7 6 6 4 7 7 5 4 3 3
10 9 8 8 8 7 8 9 7 6 8 7 6 5 4 4 9 10 12 7 8 9 9 10 8 10 10 9 11 11 5 6 9 6 6 4 3 6 7 5 6 5 2
13 13 12 11 11 10 11 11 9 7 6 6 5 6 6 6 10 12 8 5 8 10 9 9 8 10 12 12 8 8 6 5 4 8 8 5 2 6 8 6 5 5 2
17 16 14 14 14 14 13 11 8 8 10 7 8 7 8 8 10 13 9 4 8 8 8 7 10 10 12 12 10 8 10 8 7 4 6 5 4 4 7 4 6 6 3
22 19 17 15 15 15 12 11 10 11 8 9 9 7 8 8 9 13 12 6 6 7 6 5 5 10 11 12 13 10 9 9 6 6 7 5 3 4 3 3 5 5 5
22 21 19 16 13 12 16 14 12 11 9 9 8 5 6 8 10 11 15 13 10 7 9 6 6 11 10 6 6 3 8 9 5 6 6 4 4 3 3 4 4 3 2
21 19 18 15 15 11 14 14 10 10 10 9 7 7 6 5 7 14 16 11 12 7 8 8 10 11 5 5 5 8 8 6 6 6 6 4 3 4 6 5 4 4 3
20 21 16 17 16 13 9 10 11 10 10 8 7 7 6 7 7 7 7 7 10 8 14 8 7 6 5 6 5 5 4 3 7 7 5 4 5 4 4 3 3 4 3
19 15 12 16 14 13 14 10 9 10 11 10 9 8 9 9 9 11 11 9 7 9 3 2 4 3 5 5 5 3 5 5 5 5 7 6 6 5 4 3 3 3 3
11 10 13 9 10 10 10 9 10 12 16 16 14 11 9 12 12 13 14 15 13 11 4 5 6 6 9 8 7 6 4 5 5 6 7 6 6 6 6 4 4 3 4
11 10 8 12 9 10 8 8 8 3 4 11 14 12 9 10 14 13 12 7 8 7 5 8 7 10 9 8 8 7 6 6 7 6 7 6 6 6 6 6 5 4 4
9 11 7 6 5 7 7 7 7 7 9 8 10 11 13 15 14 7 7 6 2 4 7 8 8 8 6 7 7 7 7 7 6 6 7 6 6 6 4 4 3 3 4
5 5 5 6 6 7 6 7 7 6 7 7 5 6 13 12 9 10 10 7 7 6 8 7 7 6 7 8 8 8 9 8 7 7 7 6 6 5 4 4 4 4 5
5 8 5 4 4 5 6 6 6 8 7 8 8 9 5 7 6 7 6 7 8 7 8 8 7 7 8 9 9 9 7 6 7 7 7 6 4 4 5 5 4 6 4
3 5 8 5 4 5 7 7 7 6 6 8 8 7 9 9 8 9 8 10 9 8 8 8 8 7 8 9 9 9 9 8 8 6 6 6 6 5 5 6 5 4 5
3 4 5 6 5 5 4 5 6 7 8 8 6 5 11 8 8 10 10 8 8 7 7 9 8 8 8 9 9 9 9 8 7 5 6 6 5 5 5 5 5 4 5
6 6 5 5 4 3 5 5 6 7 6 4 5 5 6 9 10 8 9 8 7 7 6 8 8 9 8 8 7 8 8 7 6 7 8 7 6 6 6 6 6 6 8
7 8 7 7 6 5 5 6 4 5 4 4 3 5 7 8 8 9 8 8 10 8 7 8 8 11 9 7 6 6 6 6 6 7 10 8 7 8 7 7 7 9 9
7 7 8 7 7 7 7 6 6 6 7 5 7 8 7 8 8 7 7 8 8 8 8 8 8 10 11 11 11 11 9 10 10 9 8 10 11 11 9 8 10 10 11
10 10 8 7 7 6 6 6 7 7 6 6 6 7 7 8 8 8 7 8 9 9 9 7 8 12 12 10 13 12 12 12 11 12 11 10 11 9 9 12 14 10 11
Wind_Direction
247 189 181 193 186 174 184 190 193 181 190 189 183 174 167 176 180 167 192 218 219 239 234 228 237 225 242 242 222 214 231 215 238 258 235 241 227 223 197 200 168 160 167
242 230 227 220 172 182 194 191 187 198 197 196 186 179 174 179 171 184 208 208 216 231 239 241 258 242 246 247 230 238 232 199 230 250 211 213 206 190 201 174 160 162 190
183 198 226 203 185 215 204 194 194 186 184 176 169 170 167 190 240 232 223 247 242 241 260 267 273 264 258 257 250 230 223 204 212 228 248 175 144 192 153 142 183 185 185
205 195 197 212 204 205 209 193 178 177 168 157 161 161 166 181 206 253 252 253 259 256 248 255 268 273 277 276 270 275 246 225 223 219 229 191 170 217 143 170 204 214 190
270 222 227 220 197 191 189 176 185 175 174 169 166 175 178 191 237 237 254 258 256 260 262 260 268 267 264 264 270 276 265 249 239 238 220 198 181 200 198 164 213 170 203
303 274 257 255 215 190 187 180 174 187 187 178 187 183 182 206 234 269 260 269 271 258 259 253 256 267 276 262 248 247 250 239 242 204 227 216 203 187 141 197 169 158 228
249 263 275 251 216 240 204 192 188 186 187 200 201 181 204 223 236 252 266 265 262 251 251 255 265 264 258 272 273 249 246 231 228 204 204 208 169 186 162 174 178 163 193
253 250 250 251 248 212 217 221 206 184 194 203 212 208 208 235 240 252 266 275 263 251 247 254 252 267 265 259 269 276 245 203 197 189 204 186 199 185 180 177 177 145 108
245 244 239 235 240 239 225 224 206 190 193 188 193 210 205 230 228 245 262 268 268 258 251 248 246 258 264 257 256 257 199 195 132 145 110 43 201 187 145 133 155 165 164
256 249 239 228 223 223 225 224 206 205 206 196 206 204 208 225 225 240 253 255 265 252 249 254 248 251 275 278 243 218 202 197 173 122 96 92 151 149 167 181 157 173 152
252 246 236 228 225 226 224 219 208 210 201 193 199 194 214 218 229 232 248 238 244 258 258 264 268 265 258 258 226 203 207 150 158 138 111 131 141 129 163 173 171 165 166
247 237 230 225 220 226 229 224 211 202 198 199 193 209 219 224 223 237 248 215 238 243 258 262 262 273 268 237 231 232 174 132 153 134 126 134 145 159 165 167 167 155 162
246 232 224 228 217 222 223 215 193 184 206 206 193 205 217 218 233 222 242 234 223 229 251 257 283 289 235 195 218 175 172 147 130 139 137 148 171 155 141 130 102 133 140
231 232 224 225 218 217 226 207 196 191 193 193 196 215 214 214 220 223 232 238 228 227 256 264 257 211 200 140 111 188 120 154 156 149 139 132 134 141 132 118 140 149 139
224 209 232 224 203 210 214 207 193 197 188 194 202 204 208 220 220 213 219 227 214 214 205 188 210 172 170 149 135 152 122 159 153 140 146 151 142 143 132 159 141 141 127
191 199 214 188 194 198 200 194 193 182 188 197 188 195 215 226 218 217 226 222 217 168 165 220 210 185 182 163 148 147 147 180 157 157 154 149 150 153 151 150 137 151 131
195 201 165 191 192 178 183 181 184 180 195 211 205 201 206 218 219 223 218 214 215 163 205 219 196 192 187 170 150 143 159 173 156 163 156 153 159 153 160 150 138 129 124
177 173 181 167 163 170 181 180 185 189 197 210 214 213 218 227 233 200 162 186 231 209 212 211 192 193 174 143 149 147 153 150 160 166 154 157 162 163 154 130 127 134 139
137 150 156 165 167 170 175 184 191 195 204 206 197 199 218 218 206 180 180 230 228 212 209 193 179 172 168 150 152 157 150 154 162 157 156 157 167 158 136 119 113 122 119
132 129 123 139 165 190 195 190 193 210 211 221 219 217 175 136 185 202 202 211 219 203 193 166 154 158 166 152 157 144 138 147 154 158 157 160 146 130 140 132 150 149 135
149 161 182 193 195 186 191 199 198 199 212 221 222 210 177 188 193 201 200 208 205 181 157 153 150 158 150 150 138 146 158 160 159 147 154 149 154 139 140 142 137 112 119
191 166 185 189 194 209 221 204 195 209 221 220 208 184 176 197 182 196 190 169 164 146 144 146 151 152 149 144 147 155 155 152 149 130 125 130 132 126 124 115 106 105 124
189 185 201 219 222 216 210 235 212 208 205 173 168 159 183 192 168 149 139 136 136 117 125 138 139 133 126 135 149 149 148 149 145 136 129 128 121 113 112 108 112 113 116
200 193 192 190 207 203 231 208 158 118 120 129 182 127 104 97 103 98 104 120 126 136 131 131 128 128 128 125 119 128 121 121 121 126 124 119 114 111 102 100 98 103 94
71 83 104 136 155 151 124 128 123 114 104 103 98 87 85 101 102 96 100 107 106 108 100 103 109 120 121 121 123 115 105 100 102 102 103 105 106 106 108 104 103 96 100
43 55 63 73 76 81 88 91 94 94 94 82 75 77 86 92 89 88 95 99 97 87 90 94 99 104 107 104 110 106 101 98 98 99 109 109 109 104 101 101 103 102 101